Date String (YYYY-MM-DD hh:mm:ss) UTC,Instrument flags,absolute air pressure of the measurement (hPa),sample flow rate (lpm),inlet stack bypass flow (lpm),air temperature of the measurement (°C),ambient temperature measured by the external sensor (°C),aerosol sample conditioner tube jacket temperature (°C),OPC LED temperature (°C),internal box temperature (°C),relative humidity of the measurement (%),span deviation,mass concentration of particles derived from Lorenz-Mie calculation of OPC scattering (μg/m³),mass concentration of particles derived from Lorenz-Mie calculation of OPC scattering (μg/m³),mass concentration of particles derived from Lorenz-Mie calculation of OPC scattering (μg/m³)
DateTimeUTC,F1_M11,P_M11,Q1_M11,Q2_M11,T1_M11,T2_M11,T3_M11,T4_M11,T5_M11,U1_M11,ZSPAN_M11,X0_M11,X2_M11,X1_M11
2024-03-24 10:00:00,SystemResetWarning,0810.9,5.00,000.00,022.7,021.8,000.0,031.4,024.5,21.2,0001.3,0035.10,0014.11,0011.65
2024-03-24 10:01:00,SystemResetWarning,0810.9,5.00,000.00,022.6,021.8,000.0,031.4,024.6,21.2,0001.3,0035.42,0014.23,0011.78
2024-03-24 10:02:00,SystemResetWarning,0810.9,4.99,000.00,022.6,021.7,000.0,031.4,024.5,21.2,0001.5,0036.50,0014.31,0011.90
2024-03-24 10:03:00,SystemResetWarning,0810.9,5.00,000.00,022.6,021.7,000.0,031.3,024.5,21.2,0001.1,0038.68,0014.51,0012.04
2024-03-24 10:04:00,SystemResetWarning,0811.0,5.01,000.00,022.6,021.7,000.0,031.3,024.5,21.2,0001.0,0039.52,0014.60,0012.20
2024-03-24 10:05:00,SystemResetWarning,0811.0,5.00,000.00,022.6,021.7,000.0,031.3,024.5,21.2,0001.1,0040.68,0014.81,0012.34
2024-03-24 10:06:00,SystemResetWarning,0811.0,5.00,000.00,022.6,021.7,000.0,031.3,024.5,21.2,0001.2,0041.17,0015.03,0012.50
2024-03-24 10:07:00,SystemResetWarning,0810.9,5.00,000.00,022.6,021.7,000.0,031.3,024.5,21.1,0001.3,0040.34,0015.10,0012.61
2024-03-24 10:08:00,SystemResetWarning,0810.9,5.00,000.00,022.6,021.7,000.0,031.3,024.5,21.1,0001.3,0040.21,0015.20,0012.67
2024-03-24 10:09:00,SystemResetWarning,0810.8,5.00,000.00,022.6,021.7,000.0,031.3,024.5,21.2,0001.5,0040.32,0015.29,0012.72
2024-03-24 10:10:00,SystemResetWarning,0810.8,5.01,000.00,022.6,021.7,000.0,031.3,024.5,21.2,0001.5,0040.04,0015.35,0012.78
2024-03-24 10:11:00,SystemResetWarning,0810.8,4.99,000.00,022.6,021.7,000.0,031.3,024.5,21.2,0001.9,0040.02,0015.45,0012.87
2024-03-24 10:12:00,SystemResetWarning,0810.8,4.99,000.00,022.6,021.7,000.0,031.3,024.5,21.2,0002.1,0039.97,0015.49,0012.94
2024-03-24 10:13:00,SystemResetWarning,0810.8,4.99,000.00,022.6,021.7,000.0,031.3,024.5,21.2,0001.8,0039.63,0015.58,0013.00
2024-03-24 10:14:00,SystemResetWarning,0810.7,5.01,000.00,022.5,021.7,000.0,031.3,024.5,21.2,0001.8,0037.62,0015.67,0013.05
2024-03-24 10:15:00,SystemResetWarning,0810.7,5.01,000.00,022.5,021.7,000.0,031.2,024.4,21.2,0001.7,0037.53,0015.81,0013.11
2024-03-24 10:16:00,SystemResetWarning,0810.6,5.00,000.00,022.5,021.7,000.0,031.2,024.4,21.2,0001.9,0036.88,0015.89,0013.18
2024-03-24 10:17:00,SystemResetWarning,0810.7,5.00,000.00,022.5,021.7,000.0,031.2,024.4,21.2,0001.9,0038.53,0015.94,0013.22
2024-03-24 10:18:00,SystemResetWarning,0810.7,4.99,000.00,022.5,021.7,000.0,031.2,024.4,21.2,0002.0,0037.45,0015.97,0013.26
2024-03-24 10:19:00,SystemResetWarning,0810.8,5.00,000.00,022.5,021.7,000.0,031.2,024.4,21.0,0002.2,0038.31,0015.94,0013.25
2024-03-24 10:20:00,SystemResetWarning,0810.8,4.99,000.00,022.5,021.7,000.0,031.2,024.4,20.9,0002.4,0038.21,0015.93,0013.21
2024-03-24 10:21:00,SystemResetWarning,0810.9,4.99,000.00,022.5,021.7,000.0,031.2,024.4,20.9,0002.5,0037.14,0015.98,0013.21
2024-03-24 10:22:00,SystemResetWarning,0810.9,5.00,000.00,022.5,021.7,000.0,031.2,024.4,21.0,0002.5,0037.03,0015.98,0013.20
2024-03-24 10:23:00,SystemResetWarning,0810.8,5.01,000.00,022.5,021.6,000.0,031.2,024.4,21.1,0002.6,0037.37,0016.01,0013.20
2024-03-24 10:24:00,SystemResetWarning,0810.8,5.01,000.00,022.4,021.6,000.0,031.2,024.3,21.1,0002.8,0037.10,0016.07,0013.21
2024-03-24 10:25:00,SystemResetWarning,0810.8,5.00,000.00,022.4,021.6,000.0,031.2,024.3,21.2,0002.9,0037.75,0016.03,0013.21
2024-03-24 10:26:00,SystemResetWarning,0810.8,5.01,000.00,022.4,021.6,000.0,031.2,024.3,21.2,0003.0,0037.40,0015.99,0013.18
2024-03-24 10:27:00,SystemResetWarning,0810.7,5.00,000.00,022.4,021.6,000.0,031.1,024.3,21.2,0002.7,0038.08,0015.90,0013.14
2024-03-24 10:28:00,SystemResetWarning,0810.7,5.00,000.00,022.4,021.6,000.0,031.1,024.3,21.2,0002.1,0037.69,0015.82,0013.09
2024-03-24 10:29:00,SystemResetWarning,0810.7,4.99,000.00,022.4,021.6,000.0,031.1,024.3,21.3,0002.1,0037.65,0015.75,0013.03
2024-03-24 10:30:00,SystemResetWarning,0810.6,4.99,000.00,022.4,021.6,000.0,031.1,024.3,21.4,0001.6,0036.58,0015.83,0013.05
2024-03-24 10:31:00,SystemResetWarning,0810.6,5.00,000.00,022.4,021.5,000.0,031.1,024.3,21.4,0001.3,0036.53,0015.87,0013.11
2024-03-24 10:32:00,SystemResetWarning,0810.6,5.01,000.00,022.3,021.5,000.0,031.1,024.3,21.4,0001.2,0038.18,0015.88,0013.11
2024-03-24 10:33:00,SystemResetWarning,0810.6,5.01,000.00,022.3,021.5,000.0,031.1,024.2,21.6,0001.0,0038.71,0015.85,0013.13
2024-03-24 10:34:00,SystemResetWarning,0810.5,5.00,000.00,022.3,021.5,000.0,031.1,024.2,22.2,0000.7,0041.10,0015.91,0013.14
2024-03-24 10:35:00,SystemResetWarning,0810.5,5.00,000.00,022.3,021.5,000.0,031.1,024.2,22.7,0000.5,0042.09,0015.91,0013.15
2024-03-24 10:36:00,SystemResetWarning,0810.4,4.98,000.00,022.3,021.5,000.0,031.1,024.2,21.9,0000.5,0042.50,0015.93,0013.16
2024-03-24 10:37:00,SystemResetWarning,0810.4,4.99,000.00,022.3,021.5,000.0,031.0,024.2,21.8,0000.7,0043.43,0015.89,0013.17
2024-03-24 10:38:00,SystemResetWarning,0810.4,5.01,000.00,022.3,021.5,000.0,031.0,024.2,21.8,0000.9,0043.81,0015.92,0013.16
2024-03-24 10:39:00,SystemResetWarning,0810.3,5.01,000.00,022.3,021.5,000.0,031.0,024.2,21.8,0001.3,0043.82,0015.97,0013.16
2024-03-24 10:40:00,SystemResetWarning,0810.3,5.00,000.00,022.3,021.4,000.0,031.0,024.2,21.8,0001.0,0044.24,0016.10,0013.21
2024-03-24 10:41:00,SystemResetWarning,0810.2,4.99,000.00,022.3,021.4,000.0,031.0,024.1,21.8,0001.2,0044.55,0016.18,0013.28
2024-03-24 10:42:00,SystemResetWarning,0810.2,4.99,000.00,022.2,021.4,000.0,031.0,024.1,21.9,0001.4,0044.78,0016.20,0013.36
2024-03-24 10:43:00,SystemResetWarning,0810.1,5.00,000.00,022.2,021.4,000.0,031.0,024.1,21.9,0001.1,0043.66,0016.22,0013.44
2024-03-24 10:44:00,SystemResetWarning,0810.1,5.00,000.00,022.2,021.4,000.0,031.0,024.1,21.9,0001.2,0044.20,0016.33,0013.48
2024-03-24 10:45:00,SystemResetWarning,0810.1,5.00,000.00,022.2,021.4,000.0,031.0,024.1,21.9,0001.0,0041.90,0016.40,0013.53
2024-03-24 10:46:00,SystemResetWarning,0810.1,5.01,000.00,022.2,021.4,000.0,030.9,024.1,21.9,0001.1,0041.01,0016.42,0013.59
2024-03-24 10:47:00,SystemResetWarning,0810.1,5.01,000.00,022.2,021.4,000.0,030.9,024.1,21.9,0000.9,0040.08,0016.51,0013.66
2024-03-24 10:48:00,SystemResetWarning,0810.2,5.01,000.00,022.2,021.4,000.0,030.9,024.1,21.9,0001.0,0039.30,0016.65,0013.71
2024-03-24 10:49:00,SystemResetWarning,0810.2,5.00,000.00,022.2,021.4,000.0,030.9,024.1,21.9,0000.9,0038.52,0016.76,0013.77
2024-03-24 10:50:00,SystemResetWarning,0810.2,5.00,000.00,022.2,021.4,000.0,030.9,024.1,21.9,0000.9,0037.84,0016.81,0013.81
2024-03-24 10:51:00,SystemResetWarning,0810.1,5.00,000.00,022.2,021.4,000.0,030.9,024.1,22.0,0001.2,0037.95,0016.78,0013.84
2024-03-24 10:52:00,SystemResetWarning,0810.1,4.99,000.00,022.1,021.4,000.0,030.9,024.0,22.0,0001.0,0038.06,0016.70,0013.82
2024-03-24 10:53:00,SystemResetWarning,0810.1,4.99,000.00,022.1,021.3,000.0,030.9,024.0,22.0,0001.1,0039.08,0016.74,0013.79
2024-03-24 10:54:00,SystemResetWarning,0810.1,5.01,000.00,022.1,021.3,000.0,030.9,024.0,22.0,0001.1,0039.03,0016.74,0013.76
2024-03-24 10:55:00,SystemResetWarning,0810.1,5.01,000.00,022.1,021.3,000.0,030.8,024.0,22.0,0001.2,0038.64,0016.73,0013.75
2024-03-24 10:56:00,SystemResetWarning,0810.1,5.00,000.00,022.1,021.3,000.0,030.8,024.0,22.0,0001.3,0039.02,0016.61,0013.74
2024-03-24 10:57:00,SystemResetWarning,0810.1,4.99,000.00,022.1,021.3,000.0,030.8,024.0,22.0,0001.3,0038.89,0016.54,0013.72
2024-03-24 10:58:00,SystemResetWarning,0810.2,5.00,000.00,022.1,021.3,000.0,030.8,024.0,22.0,0001.4,0038.00,0016.53,0013.71
2024-03-24 10:59:00,SystemResetWarning,0810.2,5.00,000.00,022.1,021.3,000.0,030.8,024.0,22.0,0001.4,0037.25,0016.41,0013.68
